This is the latest recevied weather packets stored in our database for station/object NT9G. If no packets are shown the sender has not sent any weather packets the latest 10 day(s).
| Time | Temp. | Humidity | Pressure | Rain* | Wind** | Luminosity | Snow |
|---|---|---|---|---|---|---|---|
| 1777750594 | 15° C | 26% | 1020 hPa | 0 mm | - | - | - |
| 1777750294 | 15.56° C | 26% | 1020 hPa | 0 mm | - | - | - |
| 1777749994 | 15.56° C | 21% | 1020.1 hPa | 0 mm | - | - | - |
| 1777749693 | 15.56° C | 29% | 1020.2 hPa | 0 mm | - | - | - |
| 1777749393 | 15° C | 26% | 1020.1 hPa | 0 mm | - | - | - |
| 1777749093 | 15° C | 24% | 1020.3 hPa | 0 mm | - | - | - |
| 1777748793 | 14.44° C | 29% | 1020.3 hPa | 0 mm | - | - | - |
| 1777748492 | 13.89° C | 26% | 1020.4 hPa | 0 mm | - | - | - |
| 1777748192 | 14.44° C | 26% | 1020.4 hPa | 0 mm | - | - | - |
| 1777747892 | 15° C | 25% | 1020.4 hPa | 0 mm | - | - | - |
| 1777747591 | 15° C | 30% | 1020.6 hPa | 0 mm | - | - | - |
| 1777747291 | 14.44° C | 27% | 1020.6 hPa | 0 mm | - | - | - |
| 1777746991 | 14.44° C | 26% | 1020.6 hPa | 0 mm | - | - | - |
| 1777746691 | 15° C | 23% | 1020.7 hPa | 0 mm | - | - | - |
| 1777746390 | 15° C | 27% | 1020.6 hPa | 0 mm | - | - | - |
| 1777746090 | 15.56° C | 27% | 1020.7 hPa | 0 mm | - | - | - |
| 1777745790 | 15° C | 26% | 1020.7 hPa | 0 mm | - | - | - |
| 1777745489 | 14.44° C | 27% | 1020.7 hPa | 0 mm | - | - | - |
| 1777745189 | 13.89° C | 27% | 1020.8 hPa | 0 mm | - | - | - |
| 1777744889 | 13.89° C | 26% | 1020.8 hPa | 0 mm | - | - | - |
| 1777744588 | 14.44° C | 26% | 1020.9 hPa | 0 mm | - | - | - |
| 1777744288 | 14.44° C | 31% | 1020.9 hPa | 0 mm | - | - | - |
| 1777743988 | 14.44° C | 30% | 1021 hPa | 0 mm | - | - | - |
| 1777743688 | 13.89° C | 29% | 1021 hPa | 0 mm | - | - | - |
| 1777743387 | 13.89° C | 30% | 1021.1 hPa | 0 mm | - | - | - |
* Rain since midnight (hover to see other rain measurements)
** Current wind speed in m/s (hover to see current wind gust speed)